Regional Weather Roundup
Issued by NWS

Home | Current Version | Previous Version | Graphics & Text | Print | Product List | Glossary Off
Versions: 1 2 3 4 5 6 7 8 9 10 11 12 13 14 15 16 17 18 19 20 21 22 23 24 25 26 27 28 29 30 31 32 33 34 35 36 37 38 39 40 41 42 43 44 45 46 47 48 49 50

000
ASUS45 KABQ 030510
RWRNM
NEW MEXICO REGIONAL WEATHER ROUNDUP
NATIONAL WEATHER SERVICE ALBUQUERQUE NM
1100 PM MDT MON MAY 02 2016

NOTE: "FAIR" MEANS FEW OR NO CLOUDS BELOW 12,000 FEET AGL WITH NO
       SIGNIFICANT WEATHER OR OBSTRUCTIONS TO VISION.

      THIS PRODUCT IS RELEASED AS TWO VERSIONS.  ONE VERSION NEAR
      THE TOP OF THE HOUR CONTAINING PRELIMINARY DATA FROM ALBUQUERQUE
      AND OTHER STATIONS.  A FINAL VERSION WITH ADDITIONAL DATA IS
      ISSUED ABOUT 10 MINUTES AFTER THE HOUR.

NMZ501-503-504-510>518-030600-
NORTHWEST PLATEAU/NORTHCENTRAL MOUNTAINS

CITY           SKY/WX    TMP DP  RH WIND       PRES   REMARKS
FARMINGTON     FAIR      50  38  63 E3        30.17S
LOS ALAMOS     FAIR      49  31  49 SW7       30.22F
SANTA FE       FAIR      46  30  53 CALM      30.19S
TAOS           MOCLDY    41  30  65 N5        30.22F
ANGEL FIRE     FAIR      32  28  87 SW3       30.25F

$$
NMZ402-403-502-505>509-030600-
WESTCENTRAL MOUNTAINS/SOUTHWEST MOUNTAINS

CITY           SKY/WX    TMP DP  RH WIND       PRES   REMARKS
GALLUP         FAIR      46  37  71 NE7       30.22S
GRANTS         CLOUDY    44  40  87 CALM      30.26R
SILVER CITY      N/A     48  25  40 NE6       30.17R

$$
NMZ407-409-411-412-030600-
SOUTHERN DESERTS

CITY           SKY/WX    TMP DP  RH WIND       PRES   REMARKS
LORDSBURG      FAIR      54  28  37 S8        30.08S
DEMING         FAIR      54  26  34 NE8       30.10S
LAS CRUCES     FAIR      51  24  34 SE3       30.13S
HOLLOMAN AFB   FAIR      58  27  30 SE5       30.11S
ALAMOGORDO     FAIR      57  27  30 CALM      30.13R
T OR C         FAIR      57  28  33 E5        30.13R

$$
NMZ519>523-030600-
CENTRAL VALLEYS/CENTRAL HIGHLANDS

CITY           SKY/WX    TMP DP  RH WIND       PRES   REMARKS
ALBUQUERQUE    MOCLDY    57  35  43 W9        30.18S
DOUBLE EAGLE   FAIR      50  37  61 W14       30.20S
MORIARTY ARPT  MOCLDY    42  29  60 CALM      30.21F
CLINES CORNERS FAIR      41  27  57 W12       30.20S
BELEN          LGT RAIN  53  42  67 NW13G18   30.20R
SOCORRO        CLOUDY    58  35  42 NW14      30.17R

$$
NMZ524>526-539-540-030600-
SOUTHCENTRAL MOUNTAINS

CITY           SKY/WX    TMP DP  RH WIND       PRES   REMARKS
RUIDOSO          N/A     45  32  61 CALM      30.26S

$$
NMZ527>531-030600-
NORTHEAST HIGHLANDS/NORTHEAST PLAINS

CITY           SKY/WX    TMP DP  RH WIND       PRES   REMARKS
LAS VEGAS      FAIR      39  34  82 N5        30.20R
RATON          FAIR      37  32  82 N6        30.17S WCI  32
CLAYTON        FAIR      44  35  70 S3        30.14F

$$
NMZ532>537-030600-
EASTCENTRAL PLAINS

CITY           SKY/WX    TMP DP  RH WIND       PRES   REMARKS
TUCUMCARI      FAIR      47  38  71 S7        30.13R
CANNON AFB     FAIR      47  35  63 SE7       30.15F
CLOVIS AIRPORT FAIR      48  34  57 SE6       30.17S

$$
NMZ028-029-538-030600-
SOUTHEAST PLAINS

CITY           SKY/WX    TMP DP  RH WIND       PRES   REMARKS
ROSWELL        FAIR      52  32  46 W5        30.14R
ARTESIA        FAIR      54  32  43 SW10      30.14S
CARLSBAD       FAIR      50  31  48 SW8       30.13R
HOBBS          FAIR      50  32  50 SE7       30.16S


$$




USA.gov is the U.S. government's official web portal to all federal, state and local government web resources and services.